[[{"header":{"parameterUnit":"m.s-1","parameterCategory":1,"la1":30.2991,"la2":30.254,"lo1":-89.0895,"lo2":-89.0444,"dy":0.0017,"dx":0.0017,"nx":28,"ny":28,"refTime":"2026-02-15T03:00:00:Z","depth":0,"parameterNumber":2,"parameterNumberName":"U-component_of_WINDS"},"data":[0,0,0,0,0,0,0,0,0,0,0,0,0,0,0,0,0,0,0,0,0,0,0,0,0,0,0,0,0,0,0,0,0,0,0,0,0,0,0,0,0,0,0,0,0,0,0,0,0,0,0,0,0,0,0,0,0,0,5.548,5.548,0,5.5407,5.5406,5.5405,5.5352,5.5352,5.5352,5.5351,5.5273,5.5272,5.527,0,0,0,0,0,0,0,0,0,0,0,0,0,5.5575,5.5573,5.5481,5.548,5.5479,5.5407,5.5406,5.5405,5.5352,5.5352,5.5351,5.5351,5.5274,5.5272,5.527,0,0,0,0,0,0,0,0,0,0,0,0,0,5.5521,5.5573,5.5481,5.5444,5.544,5.5407,5.5406,5.5405,5.5353,5.5352,5.5351,5.5351,5.5275,5.5272,5.527,5.5267,0,0,5.5262,5.5261,0,0,0,0,0,0,0,0,5.5524,5.5517,5.545,5.5446,5.5442,5.5388,5.5411,5.5358,5.5353,5.5386,5.5351,5.535,5.5312,5.5306,5.5294,5.5263,5.526,5.5262,5.526,5.5259,5.5259,0,0,0,0,0,0,0,5.5528,5.552,5.5451,5.5449,5.5444,5.5431,5.5422,5.5401,5.5353,5.5383,5.5379,5.5371,5.531,5.5296,5.5292,5.5259,5.5262,5.526,5.5258,5.5257,5.5224,5.5225,0,0,0,0,0,0,5.5538,5.5524,5.5454,5.5449,5.5482,5.543,5.542,5.5406,5.5353,5.5345,5.5372,5.5369,5.5301,5.5295,5.5289,5.5283,5.5259,5.5257,5.5255,5.5224,5.5225,5.5225,0,0,0,0,0,0,5.554,5.5532,5.5457,5.5485,5.5475,5.5429,5.5413,5.5405,5.5392,5.5345,5.5336,5.5367,5.53,5.5292,5.5273,5.528,5.5256,5.5254,5.5223,5.5224,5.5225,5.5271,0,0,0,0,0,0,5.5543,5.5533,5.5531,5.5486,5.5473,5.5443,5.5414,5.5404,5.5388,5.5383,5.5338,5.533,5.5299,5.5277,5.5271,5.5276,5.5252,5.5222,5.5223,5.5225,5.5269,5.5274,5.5278,0,0,0,0,0,5.5546,5.5546,5.5531,5.5523,5.5471,5.5443,5.5436,5.5401,5.5389,5.5387,5.5357,5.5331,5.528,5.5276,5.5268,5.5272,5.5222,5.5223,5.5224,5.5267,5.5273,5.5278,0,0,0,0,0,0,5.5592,5.554,5.5522,5.5508,5.5481,5.5434,5.5431,5.5408,5.5383,5.538,5.5337,5.5327,5.5313,5.5291,5.5287,5.5268,5.5248,5.5248,5.5283,5.5288,5.5292,5.5298,5.5249,0,0,0,0,0,5.5601,5.5584,5.5538,5.553,5.5517,5.5477,5.5463,5.5439,5.5409,5.5397,5.5365,5.5336,5.5314,5.53,5.5276,5.5266,5.5256,5.5265,5.527,5.5273,5.5274,5.5268,5.5272,5.523,5.523,5.523,0,0,5.5618,5.5587,5.5578,5.5538,5.5514,5.5497,5.5467,5.545,5.5437,5.5394,5.5374,5.5351,5.5316,5.5302,5.5294,5.5282,5.5283,5.5275,5.5279,5.5277,5.527,5.5274,5.5277,5.5231,5.5231,5.5231,0,0,5.5641,5.5616,5.5607,5.5584,5.5549,5.5522,5.552,5.5478,5.5461,5.5441,5.5409,5.5393,5.5355,5.5332,5.5315,5.5332,5.5308,5.5326,5.5348,5.5343,5.5347,5.5349,5.5356,5.5359,5.5326,5.5326,5.5327,0,5.5666,5.564,5.5604,5.559,5.5573,5.5536,5.5527,5.5506,5.5464,5.5454,5.5442,5.5395,5.5369,5.5349,5.5354,5.5342,5.5338,5.533,5.5349,5.5351,5.5353,5.5359,5.5362,5.5329,5.5329,5.5328,5.5328,0,5.5673,5.5656,5.5652,5.5615,5.5599,5.5587,5.555,5.5537,5.5516,5.5491,5.5472,5.5439,5.541,5.5403,5.5381,5.5381,5.5376,5.5357,5.5336,5.536,5.5365,5.5367,5.5332,5.5331,5.5331,5.533,0,0,5.572,5.5666,5.5666,5.5649,5.5609,5.5594,5.5581,5.5553,5.5544,5.5517,5.5506,5.5476,5.5459,5.544,5.5415,5.5411,5.5428,5.5393,5.5392,5.5401,5.5427,5.5441,5.5444,5.5412,5.5413,5.5413,5.543,0,5.5737,5.5712,5.5681,5.5667,5.5651,5.5616,5.5605,5.5579,5.5556,5.5539,5.5513,5.5493,5.5472,5.5461,5.5455,5.5427,5.5433,5.5426,5.5401,5.54,5.541,5.5447,5.5461,5.5479,5.5432,5.5432,5.5433,0,5.5752,5.5729,5.5714,5.5677,5.5669,5.566,5.5633,5.5617,5.5587,5.5571,5.5552,5.5526,5.5511,5.5493,5.5472,5.5468,5.5456,5.5441,5.5441,5.5437,5.5417,5.5443,5.5483,5.5486,5.5435,5.5435,5.5435,0,5.5788,5.5754,5.5741,5.5727,5.5684,5.5679,5.566,5.563,5.5616,5.5593,5.5583,5.5558,5.5544,5.5525,5.5494,5.5483,5.5476,5.5456,5.5462,5.5463,5.5461,5.5462,5.55,5.5455,5.5455,5.5455,5.5455,0,5.5809,5.5801,5.5757,5.5748,5.5739,5.5704,5.5696,5.5674,5.5649,5.5636,5.5604,5.5592,5.5551,5.5535,5.551,5.5497,5.5491,5.5477,5.5471,5.548,5.5482,5.5471,5.5469,5.5455,5.5455,5.5455,5.5455,0,5.5848,5.5817,5.5801,5.5762,5.5753,5.5747,5.5714,5.5705,5.5681,5.5666,5.566,5.5622,5.5602,5.5569,5.5538,5.5521,5.5513,5.5502,5.5523,5.5519,5.5528,5.5527,5.556,5.5562,5.5517,5.5517,5.5517,0,5.5863,5.5856,5.5818,5.5808,5.5791,5.5775,5.5761,5.5727,5.5714,5.5682,5.5677,5.5655,5.5634,5.5604,5.5573,5.555,5.5538,5.5551,5.5534,5.5544,5.5538,5.5539,5.5538,5.5555,5.5556,5.5556,5.5557,0,5.5893,5.5879,5.5861,5.5838,5.5823,5.5803,5.5782,5.5775,5.5737,5.5724,5.5704,5.5689,5.5659,5.5637,5.561,5.5591,5.5567,5.5563,5.5563,5.5572,5.5584,5.5578,5.5533,5.5562,5.5561,5.5561,5.556,5.556,5.592,5.5913,5.5886,5.5867,5.5848,5.583,5.582,5.5796,5.5779,5.5752,5.5734,5.5715,5.5687,5.5649,5.5632,5.5617,5.5606,5.5606,5.5606,5.5607,5.561,5.5588,5.5611,5.5611,5.5611,5.5611,5.5611,0,5.5948,5.593,5.5913,5.5886,5.5871,5.5853,5.5829,5.5818,5.5802,5.5779,5.5761,5.5738,5.5718,5.5687,5.5664,5.5658,5.5647,5.5653,5.5653,5.5649,5.5621,5.5623,5.5663,5.5663,5.5663,5.5663,5.5663,5.5663,5.5961,5.5949,5.5933,5.5912,5.5893,5.5875,5.5863,5.5846,5.5828,5.5805,5.5788,5.5769,5.5743,5.5718,5.5699,5.569,5.5683,5.5693,5.5681,5.5655,5.5651,5.5646,5.5648,5.5692,5.5692,5.571,5.571,5.571]},{"header":{"parameterUnit":"m.s-1","parameterCategory":1,"la1":30.2991,"la2":30.254,"lo1":-89.0895,"lo2":-89.0444,"dy":0.0017,"dx":0.0017,"nx":28,"ny":28,"refTime":"2026-02-15T03:00:00:Z","depth":0,"parameterNumber":3,"parameterNumberName":"V-component_of_WINDS"},"data":[0,0,0,0,0,0,0,0,0,0,0,0,0,0,0,0,0,0,0,0,0,0,0,0,0,0,0,0,0,0,0,0,0,0,0,0,0,0,0,0,0,0,0,0,0,0,0,0,0,0,0,0,0,0,0,0,0,0,3.3321,3.3323,0,3.3495,3.3497,3.3499,3.355,3.3549,3.3548,3.3547,3.3723,3.3729,3.3734,0,0,0,0,0,0,0,0,0,0,0,0,0,3.3031,3.3036,3.3321,3.3323,3.3325,3.3494,3.3497,3.3499,3.355,3.3549,3.3548,3.3547,3.3722,3.3728,3.3735,0,0,0,0,0,0,0,0,0,0,0,0,0,3.3176,3.3038,3.332,3.3371,3.3377,3.3494,3.3497,3.35,3.355,3.3549,3.3547,3.3546,3.3719,3.3727,3.3736,3.3814,0,0,3.3761,3.3765,0,0,0,0,0,0,0,0,3.3168,3.3187,3.3361,3.3367,3.3375,3.3499,3.3459,3.3605,3.355,3.3484,3.3547,3.3545,3.365,3.3664,3.3699,3.3823,3.383,3.3762,3.3767,3.377,3.3773,0,0,0,0,0,0,0,3.3158,3.3179,3.3389,3.3364,3.3372,3.3384,3.3403,3.3487,3.3572,3.349,3.3494,3.3514,3.3653,3.3691,3.3704,3.3833,3.3762,3.3769,3.3774,3.3777,3.4031,3.4032,0,0,0,0,0,0,3.3139,3.3171,3.3384,3.3395,3.3266,3.3391,3.3412,3.346,3.3572,3.3587,3.3515,3.3516,3.3678,3.3694,3.371,3.3811,3.377,3.3778,3.3783,3.4029,3.4031,3.4033,0,0,0,0,0,0,3.3133,3.3158,3.3377,3.3284,3.3313,3.3397,3.3451,3.3465,3.3503,3.3591,3.3606,3.3538,3.3677,3.3698,3.3788,3.3817,3.3782,3.3789,3.4027,3.4029,3.4032,3.4011,0,0,0,0,0,0,3.3124,3.3155,3.3186,3.3284,3.3318,3.3452,3.3453,3.3469,3.3517,3.352,3.3617,3.3631,3.3678,3.3776,3.3797,3.3828,3.3796,3.4025,3.4028,3.4031,3.401,3.4013,3.4015,0,0,0,0,0,3.3114,3.3173,3.3187,3.3213,3.3358,3.3454,3.3473,3.3526,3.3519,3.3551,3.3608,3.3628,3.3811,3.3785,3.3809,3.3843,3.4023,3.4027,3.4031,3.4008,3.4012,3.4015,0,0,0,0,0,0,3.3075,3.3186,3.3204,3.3296,3.3365,3.3462,3.3504,3.3528,3.36,3.3599,3.3661,3.3682,3.3768,3.3815,3.3783,3.3926,3.3917,3.3926,3.3892,3.3896,3.3899,3.3886,3.3803,0,0,0,0,0,3.3077,3.3146,3.324,3.3312,3.3346,3.3419,3.3463,3.3498,3.3571,3.36,3.3664,3.3734,3.3808,3.3854,3.3927,3.4016,3.4039,3.4052,3.4055,3.4057,3.4064,3.4116,3.4123,3.4046,3.4046,3.4046,0,0,3.3082,3.3152,3.3191,3.3306,3.3364,3.3434,3.3443,3.3516,3.3569,3.3611,3.3701,3.375,3.3832,3.3923,3.3966,3.3964,3.409,3.4062,3.4063,3.4069,3.412,3.4128,3.4134,3.4048,3.4048,3.4047,0,0,3.3127,3.3187,3.3254,3.3312,3.34,3.3448,3.3464,3.3558,3.3592,3.3683,3.3717,3.378,3.3905,3.3963,3.4008,3.4076,3.4098,3.4098,3.4113,3.4163,3.4169,3.4175,3.42,3.4208,3.4105,3.4105,3.4105,0,3.3122,3.323,3.3286,3.3358,3.3408,3.345,3.3519,3.3572,3.3678,3.3712,3.3708,3.3867,3.3925,3.4031,3.4047,3.4083,3.4103,3.4088,3.4164,3.417,3.4176,3.4201,3.421,3.4104,3.4104,3.4104,3.4104,0,3.322,3.3294,3.3338,3.344,3.3495,3.3565,3.3632,3.368,3.371,3.3759,3.3851,3.3923,3.4011,3.4038,3.4068,3.4148,3.4145,3.4152,3.4145,3.4182,3.4206,3.4216,3.4103,3.4104,3.4104,3.4104,0,0,3.3245,3.3378,3.3394,3.3441,3.3542,3.36,3.3672,3.3759,3.38,3.3871,3.3934,3.4039,3.4047,3.4098,3.4135,3.4179,3.4229,3.4181,3.4184,3.4188,3.4323,3.4317,3.4327,3.4244,3.4246,3.4248,3.4316,0,3.3303,3.3435,3.3488,3.3594,3.3663,3.3705,3.3768,3.3836,3.3884,3.3949,3.4002,3.4076,3.408,3.4112,3.4157,3.4213,3.4257,3.4209,3.4303,3.4306,3.4281,3.434,3.4334,3.4395,3.4326,3.4327,3.4329,0,3.3389,3.3463,3.3576,3.3669,3.37,3.3756,3.3841,3.3903,3.3981,3.4013,3.4071,3.4106,3.4183,3.4171,3.4278,3.4245,3.4286,3.432,3.4323,3.4335,3.4319,3.4353,3.4415,3.4424,3.4344,3.4343,3.4342,0,3.3396,3.3524,3.3609,3.3648,3.3759,3.3797,3.3845,3.3922,3.3971,3.4045,3.4078,3.4159,3.4203,3.4265,3.4321,3.4307,3.4423,3.4416,3.4452,3.4451,3.4475,3.4473,3.4545,3.45,3.45,3.45,3.45,0,3.3456,3.3524,3.3614,3.3666,3.3744,3.3804,3.3879,3.393,3.3998,3.4061,3.4102,3.4159,3.4229,3.4296,3.434,3.4423,3.4442,3.447,3.4481,3.4467,3.4463,3.4495,3.4492,3.4503,3.4502,3.4501,3.4501,0,3.3477,3.354,3.3636,3.3733,3.3759,3.3812,3.3895,3.3948,3.3997,3.4076,3.4098,3.4176,3.4257,3.4319,3.4423,3.4453,3.4541,3.4552,3.4515,3.452,3.4553,3.4549,3.4649,3.4666,3.4609,3.4609,3.461,0,3.3511,3.3565,3.3669,3.3714,3.3762,3.3834,3.3885,3.3947,3.3998,3.4092,3.4133,3.4217,3.4287,3.4415,3.448,3.4561,3.4575,3.4604,3.4587,3.4571,3.4576,3.4572,3.4578,3.4606,3.4606,3.4607,3.4607,0,3.3565,3.3595,3.3667,3.3751,3.3811,3.3879,3.3949,3.3983,3.4057,3.4113,3.4197,3.4252,3.4359,3.4442,3.453,3.4578,3.4605,3.4612,3.4625,3.4611,3.4587,3.4601,3.4521,3.4609,3.4609,3.4609,3.4609,3.4609,3.3595,3.3645,3.3726,3.3806,3.3865,3.3929,3.3983,3.4041,3.4112,3.4205,3.4237,3.4323,3.4401,3.4522,3.4571,3.464,3.464,3.4658,3.4663,3.4667,3.4666,3.4576,3.4656,3.4656,3.4656,3.4656,3.4656,0,3.3652,3.3706,3.3779,3.3876,3.3938,3.3959,3.4037,3.4088,3.4164,3.4235,3.4304,3.4401,3.4482,3.4554,3.4639,3.468,3.4694,3.47,3.4697,3.4708,3.466,3.4641,3.4687,3.4687,3.4687,3.4687,3.4687,3.4687,3.3689,3.3775,3.3814,3.393,3.3984,3.407,3.4113,3.4173,3.423,3.4336,3.4404,3.4451,3.4523,3.4613,3.4688,3.4708,3.4737,3.474,3.4762,3.4715,3.4712,3.4708,3.469,3.4745,3.4745,3.4805,3.4805,3.4805]}]]